Kenosha, WI

8:09 PM CST on February 06, 2016 (GMT -0600)
Kenosha Regional

Weather History for KENW - October, 2013

Change the Weather History Date:

Monday, October 21, 2013

  Actual Average Record
Temperature  
Mean Temperature 40 °F -  
Max Temperature 52 °F 57 °F 82 °F (1953)
Min Temperature 28 °F 40 °F 25 °F (1960)
Degree Days  
Heating Degree Days 25    
Moisture  
Dew Point 31 °F    
Average Humidity 63    
Maximum Humidity 78    
Minimum Humidity 51    
Precipitation  
Precipitation 0.00 in - - ()
Sea Level Pressure  
Sea Level Pressure 29.89 in    
Wind  
Wind Speed 12 mph (West)    
Max Wind Speed 18 mph    
Max Gust Speed 29 mph    
Visibility 10 miles    
Events      
Averages and records for this station are not official NWS values.
T = Trace of Precipitation, MM = Missing Value Source: NWS Daily Summary

Daily Weather History Graph

Daily Weather History Graph

Search for Another Location

Airport or City:

Trip Planner

Search our weather history database for the weather conditions in past years. The results will help you decide how hot, cold, wet, or windy it might be!

Date:

Astronomy

Oct. 21, 2013 Rise Set
Actual Time 7:12 AM CDT 5:59 PM CDT
Civil Twilight 6:43 AM CDT 6:28 PM CDT
Nautical Twilight 6:10 AM CDT 7:01 PM CDT
Astronomical Twilight 5:38 AM CDT 7:33 PM CDT
Moon 7:49 PM CDT (10/21) 9:49 AM CDT (10/21)
Length of Visible Light 11h 44m
Length of Day
10h 47m
Waning Gibbous, 92% of the Moon is Illuminated
Oct 21
Waning Gibbous
Oct 26
Last Quarter
Nov 3
New
Nov 9
First Quarter
Nov 17
Full

Hourly Weather History & Observations

Time (CDT) Temp. Windchill Dew Point Humidity Pressure Visibility Wind Dir Wind Speed Gust Speed Precip Events Conditions
12:53 AM 52.0 °F - 43.0 °F 71% 29.77 in 10.0 mi WSW 11.5 mph - N/A   Overcast
1:53 AM 51.1 °F - 42.1 °F 71% 29.79 in 10.0 mi West 9.2 mph - N/A   Overcast
2:53 AM 50.0 °F - 41.0 °F 71% 29.80 in 10.0 mi West 12.7 mph - N/A   Mostly Cloudy
3:53 AM 48.9 °F - 39.9 °F 71% 29.81 in 10.0 mi West 12.7 mph - N/A   Overcast
4:24 AM 48.2 °F - 37.4 °F 66% 29.82 in 10.0 mi West 15.0 mph 25.3 mph N/A   Overcast
4:53 AM 46.9 °F - 37.9 °F 71% 29.83 in 10.0 mi West 11.5 mph 24.2 mph N/A   Overcast
5:53 AM 45.0 °F 38.9 °F 35.1 °F 68% 29.86 in 10.0 mi West 12.7 mph 24.2 mph N/A   Overcast
6:53 AM 42.1 °F 35.2 °F 32.0 °F 67% 29.88 in 10.0 mi West 12.7 mph - N/A   Overcast
7:53 AM 41.0 °F 34.7 °F 30.9 °F 67% 29.90 in 10.0 mi WNW 10.4 mph - N/A   Overcast
8:53 AM 42.1 °F 35.7 °F 30.0 °F 62% 29.91 in 10.0 mi WNW 11.5 mph - N/A   Overcast
9:53 AM 43.0 °F 36.4 °F 30.0 °F 60% 29.91 in 10.0 mi WNW 12.7 mph - N/A   Mostly Cloudy
10:53 AM 46.0 °F 41.9 °F 30.0 °F 54% 29.91 in 10.0 mi West 8.1 mph 20.7 mph N/A   Mostly Cloudy
11:53 AM 46.0 °F 39.6 °F 30.0 °F 54% 29.91 in 10.0 mi West 15.0 mph 20.7 mph N/A   Overcast
12:53 PM 45.0 °F 38.2 °F 30.0 °F 56% 29.89 in 10.0 mi West 15.0 mph 19.6 mph N/A   Overcast
1:53 PM 46.0 °F 40.2 °F 30.0 °F 54% 29.88 in 10.0 mi West 12.7 mph 21.9 mph N/A   Overcast
2:53 PM 46.0 °F 39.3 °F 28.9 °F 51% 29.88 in 10.0 mi West 16.1 mph 26.5 mph N/A   Overcast
3:53 PM 43.0 °F 34.8 °F 28.9 °F 58% 29.89 in 10.0 mi West 18.4 mph 28.8 mph N/A   Mostly Cloudy
4:53 PM 41.0 °F 32.5 °F 25.0 °F 53% 29.92 in 10.0 mi West 17.3 mph 24.2 mph N/A   Mostly Cloudy
5:53 PM 39.9 °F 32.9 °F 24.1 °F 53% 29.95 in 10.0 mi WNW 11.5 mph - N/A   Mostly Cloudy
6:53 PM 37.0 °F 32.4 °F 24.1 °F 59% 29.96 in 10.0 mi West 5.8 mph - N/A   Mostly Cloudy
7:53 PM 36.0 °F 31.1 °F 26.1 °F 67% 29.96 in 10.0 mi WSW 5.8 mph - N/A   Mostly Cloudy
8:53 PM 35.1 °F 27.9 °F 24.1 °F 64% 29.96 in 10.0 mi West 9.2 mph - N/A   Clear
9:53 PM 34.0 °F 27.2 °F 21.9 °F 61% 29.97 in 10.0 mi West 8.1 mph - N/A   Partly Cloudy
10:53 PM 28.9 °F 21.1 °F 21.9 °F 75% 29.96 in 10.0 mi WSW 8.1 mph - N/A   Clear
11:53 PM 28.0 °F 20.8 °F 21.9 °F 78% 29.96 in 10.0 mi WSW 6.9 mph - N/A   Clear